Belize, Belize

3:48 PM CST on March 30, 2017 (GMT -0600)
Philip S W Goldson International

Weather History for MZBZ - July, 2013

Change the Weather History Date:

Monday, July 1, 2013

  Actual Average Record
Temperature  
Mean Temperature 82 °F -  
Max Temperature 88 °F 88 °F 91 °F (2010)
Min Temperature 76 °F 76 °F 68 °F (1996)
Cooling Degree Days 17    
Growing Degree Days 32 (Base 50)    
Moisture  
Dew Point 77 °F    
Average Humidity 82    
Maximum Humidity 95    
Minimum Humidity 66    
Precipitation  
Precipitation 0.31 in 0.32 in - ()
Sea Level Pressure  
Sea Level Pressure 29.86 in    
Wind  
Wind Speed 3 mph ()    
Max Wind Speed 9 mph    
Max Gust Speed -    
Visibility 8.0 miles    
Events Rain , Thunderstorm    
Averages and records for this station are not official NWS values.
T = Trace of Precipitation, MM = Missing Value Source: Averaged Metar Reports

Daily Weather History Graph

Daily Weather History Graph

Search for Another Location

Airport or City:

Trip Planner

Search our weather history database for the weather conditions in past years. The results will help you decide how hot, cold, wet, or windy it might be!

Date:

Astronomy

Jul. 01, 2013 Rise Set
Actual Time 5:22 AM CST 6:31 PM CST
Civil Twilight 4:58 AM CST 6:55 PM CST
Nautical Twilight 4:29 AM CST 7:24 PM CST
Astronomical Twilight 4:00 AM CST 7:53 PM CST
Moon 12:20 AM CST (7/1) 1:13 PM CST (7/1)
Length of Visible Light 13h 57m
Length of Day
13h 09m
Waning Crescent, 35% of the Moon is Illuminated
Jul 1
Waning Crescent
Jul 8
New
Jul 15
First Quarter
Jul 22
Full
Jul 29
Last Quarter

Hourly Weather History & Observations

Time (CST) Temp. Heat Index Dew Point Humidity Pressure Visibility Wind Dir Wind Speed Gust Speed Precip Events Conditions
12:00 AM 81 °F - 77 °F 85% 29.87 in 12 mi Calm Calm - -   Mostly Cloudy
3:00 AM 77 °F - 76 °F 94% 29.85 in 12 mi WNW 5.8 mph - - Rain Light Rain Showers
5:00 AM 75.2 °F - 73.4 °F 94% 29.83 in 6.2 mi Calm Calm - N/A   Mostly Cloudy
6:00 AM 77 °F - 76 °F 95% 29.87 in 12 mi Calm Calm - -   Partly Cloudy
6:00 AM 77.0 °F - 75.2 °F 94% 29.86 in 6.2 mi Calm Calm - N/A   Scattered Clouds
7:00 AM 78.8 °F - 77.0 °F 94% 29.86 in 6.2 mi NW 6.9 mph - N/A   Scattered Clouds
8:00 AM 82.4 °F 90.9 °F 77.0 °F 84% 29.89 in 6.2 mi NNW 6.9 mph - N/A   Scattered Clouds
9:00 AM 84 °F - 78 °F 76% 29.91 in 12 mi NW 3.5 mph - - Thunderstorm Thunderstorm
9:00 AM 84.2 °F 94.1 °F 77.0 °F 79% 29.90 in 6.2 mi NW 3.5 mph - N/A Thunderstorm Thunderstorm
9:55 AM 86.0 °F 96.9 °F 77.0 °F 74% 29.89 in 6.2 mi West 3.5 mph - N/A   Scattered Clouds
10:00 AM 86.0 °F 96.9 °F 77.0 °F 74% 29.89 in 6.2 mi NE 4.6 mph - N/A   Mostly Cloudy
11:00 AM 87.8 °F 99.7 °F 77.0 °F 70% 29.88 in 6.2 mi ENE 8.1 mph - N/A   Mostly Cloudy
12:00 PM 87 °F - 77 °F 66% 29.87 in 12 mi NE 9.2 mph - -   Mostly Cloudy
12:00 PM 86.0 °F 96.9 °F 77.0 °F 74% 29.86 in 6.2 mi NE 9.2 mph - N/A   Mostly Cloudy
1:00 PM 87.8 °F 99.7 °F 77.0 °F 70% 29.85 in 6.2 mi East 6.9 mph - N/A   Mostly Cloudy
2:00 PM 84.2 °F 92.3 °F 75.2 °F 74% 29.84 in 6.2 mi ENE 6.9 mph - N/A   Mostly Cloudy
3:00 PM 84.2 °F 94.1 °F 77.0 °F 79% 29.83 in 6.2 mi WNW 4.6 mph - N/A   Mostly Cloudy
4:00 PM 82.4 °F 90.9 °F 77.0 °F 84% 29.82 in 6.2 mi Calm Calm - N/A   Mostly Cloudy
5:00 PM 84.2 °F 96.1 °F 78.8 °F 84% 29.82 in 6.2 mi Calm Calm - N/A   Mostly Cloudy
6:00 PM 83 °F - 78 °F 82% 29.84 in 12 mi Calm Calm - -   Partly Cloudy
6:00 PM 82.4 °F 92.4 °F 78.8 °F 89% 29.84 in 6.2 mi Calm Calm - N/A   Mostly Cloudy
9:00 PM 79 °F - 77 °F 90% 29.91 in 12 mi Calm Calm - -   Partly Cloudy